Location: Ciechanow
(52.8812°N, 20.6195°E)
Time: 07:19:37
(UTC+02:00)

ISS - Visible Passes

Search period start: 27 May 2018 00:00
Search period end: 06 June 2018 00:00
Orbit: 402 x 407 km, 51.6° (Epoch: 27 May)

Date Brightness Start Highest point End Pass type
(mag) Time Alt. Az. Time Alt. Az. Time Alt. Az.
27 May -3.4 00:23:22 10° W 00:26:26 39° SSW 00:26:26 39° SSW visible
27 May -3.9 21:54:43 10° W 21:58:00 71° S 22:01:15 10° E visible
27 May -3.7 23:31:09 10° W 23:34:21 52° SSW 23:35:43 29° SE visible
28 May -1.4 01:08:05 10° W 01:08:21 11° WSW 01:08:21 11° WSW visible
28 May -3.8 22:38:57 10° W 22:42:12 63° S 22:45:05 12° ESE visible
29 May -2.4 00:15:35 10° W 00:17:43 24° SW 00:17:43 24° SW visible
29 May -3.9 21:46:44 10° W 21:50:00 71° S 21:53:16 10° E visible
29 May -3.1 23:23:14 10° W 23:26:16 35° SSW 23:27:06 30° S visible
30 May -3.5 22:30:57 10° W 22:34:08 47° SSW 22:36:31 16° SE visible
31 May -1.6 00:08:05 10° WSW 00:09:09 14° WSW 00:09:09 14° WSW visible
31 May -3.7 21:38:42 10° W 21:41:57 59° SSW 21:45:11 10° ESE visible
31 May -2.4 23:15:25 10° W 23:18:02 22° SSW 23:18:35 21° SSW visible
01 Jun -2.8 22:22:59 10° W 22:25:57 31° SSW 22:28:04 16° SSE visible
02 Jun -1.6 23:08:02 10° WSW 23:09:40 13° SW 23:10:11 13° SSW visible
03 Jun -2.0 22:15:11 10° W 22:17:37 20° SSW 22:19:41 12° S visible
05 Jun -1.3 22:08:04 10° WSW 22:09:08 11° SW 22:10:12 10° SSW visible
